Time,TemperatureF,DewpointF,PressureIn,WindDirection,WindDirectionDegrees,WindSpeedMPH,WindSpeedGustMPH,Humidity,HourlyPrecipIn,Conditions,Clouds,dailyrainin,SoftwareType,DateUTC
2013-09-14 00:09:00,47.4,47.0,29.82,North,9,3.0,7.0,97,0.09,,,0.01,weatherlink.com 1.10,2013-09-14 04:09:00,
2013-09-14 00:24:00,47.3,47.0,29.82,WNW,297,3.0,5.0,97,0.08,,,0.03,weatherlink.com 1.10,2013-09-14 04:24:00,
2013-09-14 00:40:00,47.3,47.0,29.83,NW,316,2.0,5.0,97,0.08,,,0.05,weatherlink.com 1.10,2013-09-14 04:40:00,
2013-09-14 00:55:00,47.2,46.0,29.83,NNE,31,1.0,6.0,97,0.09,,,0.08,weatherlink.com 1.10,2013-09-14 04:55:00,
2013-09-14 01:10:00,47.0,46.0,29.83,West,278,1.0,7.0,97,0.09,,,0.10,weatherlink.com 1.10,2013-09-14 05:10:00,
2013-09-14 01:25:00,46.9,46.0,29.84,NW,310,2.0,7.0,97,0.09,,,0.12,weatherlink.com 1.10,2013-09-14 05:25:00,
2013-09-14 01:40:00,46.8,46.0,29.84,NW,316,4.0,5.0,97,0.09,,,0.14,weatherlink.com 1.10,2013-09-14 05:40:00,
2013-09-14 01:55:00,46.6,46.0,29.84,WNW,291,2.0,6.0,97,0.09,,,0.17,weatherlink.com 1.10,2013-09-14 05:55:00,
2013-09-14 02:10:00,46.5,46.0,29.84,NNE,14,3.0,7.0,97,0.09,,,0.19,weatherlink.com 1.10,2013-09-14 06:10:00,
2013-09-14 02:25:00,46.5,46.0,29.84,North,4,1.0,4.0,97,0.08,,,0.20,weatherlink.com 1.10,2013-09-14 06:25:00,
2013-09-14 02:40:00,46.5,46.0,29.85,WNW,284,1.0,7.0,97,0.07,,,0.22,weatherlink.com 1.10,2013-09-14 06:40:00,
2013-09-14 02:55:00,46.7,46.0,29.85,WNW,294,1.0,4.0,97,0.06,,,0.23,weatherlink.com 1.10,2013-09-14 06:55:00,
2013-09-14 03:10:00,46.5,46.0,29.86,West,281,0.0,4.0,97,0.05,,,0.24,weatherlink.com 1.10,2013-09-14 07:10:00,
2013-09-14 03:25:00,46.5,46.0,29.85,NW,311,0.0,4.0,97,0.05,,,0.25,weatherlink.com 1.10,2013-09-14 07:25:00,
2013-09-14 03:40:00,46.5,46.0,29.86,NW,312,2.0,4.0,97,0.04,,,0.26,weatherlink.com 1.10,2013-09-14 07:40:00,
2013-09-14 03:55:00,46.7,46.0,29.86,North,349,1.0,2.0,97,0.04,,,0.27,weatherlink.com 1.10,2013-09-14 07:55:00,
2013-09-14 04:10:00,46.6,46.0,29.86,NNE,13,0.0,2.0,97,0.04,,,0.28,weatherlink.com 1.10,2013-09-14 08:10:00,
2013-09-14 04:25:00,46.5,46.0,29.87,North,356,2.0,5.0,97,0.05,,,0.30,weatherlink.com 1.10,2013-09-14 08:25:00,
2013-09-14 04:40:00,46.2,45.0,29.87,NW,314,1.0,5.0,97,0.05,,,0.31,weatherlink.com 1.10,2013-09-14 08:40:00,
2013-09-14 04:55:00,46.2,45.0,29.87,NW,311,2.0,3.0,97,0.04,,,0.31,weatherlink.com 1.10,2013-09-14 08:55:00,
2013-09-14 05:10:00,46.3,46.0,29.87,NW,316,1.0,5.0,97,0.05,,,0.33,weatherlink.com 1.10,2013-09-14 09:10:00,
2013-09-14 05:25:00,46.2,45.0,29.88,NW,320,1.0,4.0,97,0.04,,,0.34,weatherlink.com 1.10,2013-09-14 09:25:00,
2013-09-14 05:40:00,45.9,45.0,29.88,NW,311,2.0,6.0,97,0.04,,,0.35,weatherlink.com 1.10,2013-09-14 09:40:00,
2013-09-14 05:55:00,45.7,45.0,29.88,NW,308,4.0,4.0,97,0.04,,,0.36,weatherlink.com 1.10,2013-09-14 09:55:00,
2013-09-14 06:10:00,45.7,45.0,29.89,NW,311,2.0,6.0,97,0.04,,,0.37,weatherlink.com 1.10,2013-09-14 10:10:00,
2013-09-14 06:25:00,45.6,45.0,29.90,NW,325,0.0,3.0,97,0.03,,,0.37,weatherlink.com 1.10,2013-09-14 10:25:00,
2013-09-14 06:40:00,45.3,45.0,29.90,NW,326,2.0,8.0,97,0.03,,,0.38,weatherlink.com 1.10,2013-09-14 10:40:00,
2013-09-14 06:55:00,45.2,44.0,29.91,NW,309,2.0,5.0,97,0.02,,,0.38,weatherlink.com 1.10,2013-09-14 10:55:00,
2013-09-14 07:10:00,45.3,45.0,29.91,WNW,301,0.0,4.0,97,0.02,,,0.39,weatherlink.com 1.10,2013-09-14 11:10:00,
2013-09-14 07:25:00,45.3,45.0,29.92,NNW,330,1.0,3.0,97,0.02,,,0.39,weatherlink.com 1.10,2013-09-14 11:25:00,
2013-09-14 07:40:00,45.3,45.0,29.92,WNW,301,2.0,3.0,97,0.01,,,0.39,weatherlink.com 1.10,2013-09-14 11:40:00,
2013-09-14 07:55:00,45.3,45.0,29.93,NW,323,1.0,2.0,97,0.01,,,0.39,weatherlink.com 1.10,2013-09-14 11:55:00,
2013-09-14 08:10:00,45.2,44.0,29.93,NW,308,1.0,4.0,97,0.01,,,0.40,weatherlink.com 1.10,2013-09-14 12:10:00,
2013-09-14 08:25:00,45.2,44.0,29.93,NW,316,0.0,3.0,97,0.01,,,0.40,weatherlink.com 1.10,2013-09-14 12:25:00,
2013-09-14 08:40:00,45.2,44.0,29.94,NNW,345,0.0,3.0,97,0.01,,,0.40,weatherlink.com 1.10,2013-09-14 12:40:00,
2013-09-14 08:55:00,45.2,44.0,29.94,WNW,287,2.0,3.0,97,0.01,,,0.40,weatherlink.com 1.10,2013-09-14 12:55:00,
2013-09-14 09:10:00,45.3,45.0,29.95,NW,311,1.0,4.0,97,0.01,,,0.41,weatherlink.com 1.10,2013-09-14 13:10:00,
2013-09-14 09:26:00,45.3,45.0,29.95,WNW,291,1.0,5.0,97,0.01,,,0.41,weatherlink.com 1.10,2013-09-14 13:26:00,
2013-09-14 09:41:00,45.6,45.0,29.95,West,273,0.0,4.0,97,0.01,,,0.41,weatherlink.com 1.10,2013-09-14 13:41:00,
2013-09-14 09:56:00,46.2,45.0,29.96,NW,316,0.0,3.0,97,0.01,,,0.41,weatherlink.com 1.10,2013-09-14 13:56:00,
2013-09-14 10:11:00,46.1,45.0,29.97,NW,321,1.0,4.0,97,0.00,,,0.41,weatherlink.com 1.10,2013-09-14 14:11:00,
2013-09-14 10:26:00,46.0,45.0,29.97,NW,304,3.0,4.0,97,0.00,,,0.41,weatherlink.com 1.10,2013-09-14 14:26:00,
2013-09-14 10:41:00,46.1,45.0,29.97,WNW,297,1.0,2.0,97,0.00,,,0.41,weatherlink.com 1.10,2013-09-14 14:41:00,
2013-09-14 10:56:00,45.7,45.0,29.97,NW,316,1.0,4.0,97,0.00,,,0.41,weatherlink.com 1.10,2013-09-14 14:56:00,
2013-09-14 11:11:00,46.1,45.0,29.97,WNW,284,1.0,4.0,97,0.00,,,0.41,weatherlink.com 1.10,2013-09-14 15:11:00,
2013-09-14 11:26:00,46.2,45.0,29.98,WNW,287,0.0,4.0,97,0.00,,,0.41,weatherlink.com 1.10,2013-09-14 15:26:00,
2013-09-14 11:41:00,46.3,46.0,29.98,West,274,0.0,2.0,97,0.00,,,0.41,weatherlink.com 1.10,2013-09-14 15:41:00,
2013-09-14 11:56:00,46.5,46.0,29.98,NW,309,0.0,5.0,97,0.00,,,0.41,weatherlink.com 1.10,2013-09-14 15:56:00,
2013-09-14 12:11:00,46.8,46.0,29.98,NW,316,0.0,3.0,97,0.00,,,0.41,weatherlink.com 1.10,2013-09-14 16:11:00,
2013-09-14 12:26:00,47.5,47.0,29.98,North,354,2.0,5.0,96,0.00,,,0.41,weatherlink.com 1.10,2013-09-14 16:26:00,
2013-09-14 12:41:00,48.7,47.0,29.98,North,350,2.0,4.0,94,0.00,,,0.41,weatherlink.com 1.10,2013-09-14 16:41:00,
2013-09-14 12:56:00,49.5,48.0,29.98,NNW,347,4.0,4.0,93,0.00,,,0.41,weatherlink.com 1.10,2013-09-14 16:56:00,
2013-09-14 13:11:00,50.4,48.0,29.97,West,269,1.0,2.0,90,0.00,,,0.41,weatherlink.com 1.10,2013-09-14 17:11:00,
2013-09-14 13:26:00,51.4,48.0,29.97,ENE,57,0.0,7.0,87,0.00,,,0.41,weatherlink.com 1.10,2013-09-14 17:26:00,
2013-09-14 13:41:00,52.0,48.0,29.97,North,1,0.0,3.0,86,0.00,,,0.41,weatherlink.com 1.10,2013-09-14 17:41:00,
2013-09-14 13:56:00,51.6,47.0,29.97,NW,311,1.0,5.0,84,0.00,,,0.41,weatherlink.com 1.10,2013-09-14 17:56:00,
2013-09-14 14:11:00,53.6,49.0,29.96,ESE,102,0.0,3.0,84,0.00,,,0.41,weatherlink.com 1.10,2013-09-14 18:11:00,
2013-09-14 14:26:00,51.8,47.0,29.96,WNW,301,0.0,4.0,84,0.00,,,0.41,weatherlink.com 1.10,2013-09-14 18:26:00,
2013-09-14 14:41:00,53.3,48.0,29.96,NW,304,2.0,3.0,83,0.00,,,0.41,weatherlink.com 1.10,2013-09-14 18:41:00,
2013-09-14 14:56:00,52.8,47.0,29.96,NW,319,2.0,7.0,81,0.00,,,0.41,weatherlink.com 1.10,2013-09-14 18:56:00,
2013-09-14 15:11:00,53.4,48.0,29.96,West,262,0.0,2.0,82,0.00,,,0.41,weatherlink.com 1.10,2013-09-14 19:11:00,
2013-09-14 15:26:00,53.3,49.0,29.96,NW,311,2.0,4.0,85,0.00,,,0.41,weatherlink.com 1.10,2013-09-14 19:26:00,
2013-09-14 15:41:00,53.3,48.0,29.96,NW,304,1.0,4.0,82,0.00,,,0.41,weatherlink.com 1.10,2013-09-14 19:41:00,
2013-09-14 15:56:00,53.6,48.0,29.97,WNW,290,0.0,2.0,82,0.00,,,0.41,weatherlink.com 1.10,2013-09-14 19:56:00,
2013-09-14 16:11:00,53.7,48.0,29.97,WNW,285,0.0,3.0,82,0.00,,,0.41,weatherlink.com 1.10,2013-09-14 20:11:00,
2013-09-14 16:26:00,53.3,48.0,29.98,NW,326,1.0,4.0,82,0.00,,,0.41,weatherlink.com 1.10,2013-09-14 20:26:00,
2013-09-14 16:41:00,53.1,48.0,29.98,WNW,283,0.0,3.0,83,0.00,,,0.41,weatherlink.com 1.10,2013-09-14 20:41:00,
2013-09-14 16:56:00,53.5,48.0,29.99,NW,319,0.0,5.0,81,0.00,,,0.41,weatherlink.com 1.10,2013-09-14 20:56:00,
2013-09-14 17:11:00,53.4,48.0,29.99,NW,307,0.0,2.0,81,0.00,,,0.41,weatherlink.com 1.10,2013-09-14 21:11:00,
2013-09-14 17:26:00,53.0,47.0,30.00,North,1,0.0,1.0,81,0.00,,,0.41,weatherlink.com 1.10,2013-09-14 21:26:00,
2013-09-14 17:41:00,52.8,48.0,30.00,North,8,0.0,1.0,84,0.00,,,0.41,weatherlink.com 1.10,2013-09-14 21:41:00,
2013-09-14 17:56:00,52.4,48.0,30.01,North,354,0.0,1.0,86,0.00,,,0.41,weatherlink.com 1.10,2013-09-14 21:56:00,
2013-09-14 18:11:00,51.8,48.0,30.00,NE,39,0.0,2.0,86,0.00,,,0.41,weatherlink.com 1.10,2013-09-14 22:11:00,
2013-09-14 18:26:00,50.9,48.0,30.01,NE,39,0.0,0.0,89,0.00,,,0.41,weatherlink.com 1.10,2013-09-14 22:26:00,
2013-09-14 18:41:00,50.2,48.0,30.01,NE,39,0.0,0.0,91,0.00,,,0.41,weatherlink.com 1.10,2013-09-14 22:41:00,
2013-09-14 18:56:00,49.5,47.0,30.02,NE,40,0.0,0.0,92,0.00,,,0.41,weatherlink.com 1.10,2013-09-14 22:56:00,
2013-09-14 19:11:00,48.8,47.0,30.02,NE,40,0.0,0.0,93,0.00,,,0.41,weatherlink.com 1.10,2013-09-14 23:11:00,
2013-09-14 19:26:00,48.1,47.0,30.03,NE,39,0.0,0.0,94,0.00,,,0.41,weatherlink.com 1.10,2013-09-14 23:26:00,
2013-09-14 19:41:00,47.9,46.0,30.03,NE,39,0.0,1.0,94,0.00,,,0.41,weatherlink.com 1.10,2013-09-14 23:41:00,
2013-09-14 19:57:00,47.6,46.0,30.04,NE,39,0.0,1.0,95,0.00,,,0.41,weatherlink.com 1.10,2013-09-14 23:57:00,
2013-09-14 20:12:00,47.7,46.0,30.05,NE,40,0.0,0.0,95,0.00,,,0.41,weatherlink.com 1.10,2013-09-15 00:12:00,
2013-09-14 20:27:00,47.6,46.0,30.05,NE,39,0.0,1.0,94,0.00,,,0.41,weatherlink.com 1.10,2013-09-15 00:27:00,
2013-09-14 20:42:00,47.5,46.0,30.05,NNE,25,0.0,1.0,94,0.00,,,0.41,weatherlink.com 1.10,2013-09-15 00:42:00,
2013-09-14 20:57:00,47.0,45.0,30.05,NNE,25,0.0,1.0,93,0.00,,,0.41,weatherlink.com 1.10,2013-09-15 00:57:00,
2013-09-14 21:12:00,46.7,45.0,30.06,NNE,25,0.0,0.0,94,0.00,,,0.41,weatherlink.com 1.10,2013-09-15 01:12:00,
2013-09-14 21:27:00,46.4,45.0,30.06,NNE,27,0.0,1.0,94,0.00,,,0.41,weatherlink.com 1.10,2013-09-15 01:27:00,
2013-09-14 21:42:00,45.9,44.0,30.06,NNE,27,0.0,0.0,94,0.00,,,0.41,weatherlink.com 1.10,2013-09-15 01:42:00,
2013-09-14 21:57:00,45.6,44.0,30.06,NNE,27,0.0,0.0,95,0.00,,,0.41,weatherlink.com 1.10,2013-09-15 01:57:00,
2013-09-14 22:12:00,45.2,44.0,30.06,NNE,27,0.0,0.0,95,0.00,,,0.41,weatherlink.com 1.10,2013-09-15 02:12:00,
2013-09-14 22:27:00,45.2,44.0,30.07,NNE,27,0.0,0.0,95,0.00,,,0.41,weatherlink.com 1.10,2013-09-15 02:27:00,
2013-09-14 22:42:00,44.9,44.0,30.07,NNE,27,0.0,0.0,95,0.00,,,0.41,weatherlink.com 1.10,2013-09-15 02:42:00,
2013-09-14 22:57:00,44.7,43.0,30.08,NNE,27,0.0,0.0,95,0.00,,,0.41,weatherlink.com 1.10,2013-09-15 02:57:00,
2013-09-14 23:12:00,44.3,43.0,30.08,NNE,27,0.0,0.0,95,0.00,,,0.41,weatherlink.com 1.10,2013-09-15 03:12:00,
2013-09-14 23:27:00,44.0,43.0,30.08,NNE,27,0.0,0.0,95,0.00,,,0.41,weatherlink.com 1.10,2013-09-15 03:27:00,
2013-09-14 23:42:00,43.3,42.0,30.08,NNE,27,0.0,0.0,95,0.00,,,0.41,weatherlink.com 1.10,2013-09-15 03:42:00,
2013-09-14 23:57:00,43.1,42.0,30.08,NNE,27,0.0,0.0,95,0.00,,,0.41,weatherlink.com 1.10,2013-09-15 03:57:00,